Time,TemperatureF,DewpointF,PressureIn,WindDirection,WindDirectionDegrees,WindSpeedMPH,WindSpeedGustMPH,Humidity,HourlyPrecipIn,Conditions,Clouds,dailyrainin,SoftwareType,DateUTC
2013-01-18 00:14:00,32.4,31.9,29.99,NW,315,4.2,-999.0,98,-99.99,,,0.00,Acu-Link.com,2013-01-18 05:14:00,
2013-01-18 00:30:00,32.2,31.7,30.00,ESE,112,7.8,-999.0,98,-99.99,,,0.00,Acu-Link.com,2013-01-18 05:30:00,
2013-01-18 00:45:00,31.8,31.3,30.01,SE,135,3.2,-999.0,98,-99.99,,,0.00,Acu-Link.com,2013-01-18 05:45:00,
2013-01-18 01:00:00,31.5,31.0,30.03,SSE,157,3.2,-999.0,98,-99.99,,,0.00,Acu-Link.com,2013-01-18 06:00:00,
2013-01-18 01:15:00,31.3,30.8,30.05,SE,135,5.3,-999.0,98,-99.99,,,0.00,Acu-Link.com,2013-01-18 06:15:00,
2013-01-18 01:30:00,30.9,30.4,30.05,SE,135,4.2,-999.0,98,-99.99,,,0.00,Acu-Link.com,2013-01-18 06:30:00,
2013-01-18 01:45:00,30.6,30.1,30.06,South,180,2.2,-999.0,98,-99.99,,,0.00,Acu-Link.com,2013-01-18 06:45:00,
2013-01-18 02:01:00,30.6,30.1,30.07,ESE,112,2.7,-999.0,98,-99.99,,,0.00,Acu-Link.com,2013-01-18 07:01:00,
2013-01-18 02:16:00,30.2,29.7,30.08,East,90,4.2,-999.0,98,-99.99,,,0.00,Acu-Link.com,2013-01-18 07:16:00,
2013-01-18 02:31:00,30.0,29.5,30.09,WNW,292,3.7,-999.0,98,-99.99,,,0.00,Acu-Link.com,2013-01-18 07:31:00,
2013-01-18 02:46:00,29.8,29.3,30.08,SE,135,1.7,-999.0,98,-99.99,,,0.00,Acu-Link.com,2013-01-18 07:46:00,
2013-01-18 03:01:00,29.8,29.3,30.09,ESE,112,4.2,-999.0,98,-99.99,,,0.00,Acu-Link.com,2013-01-18 08:01:00,
2013-01-18 03:17:00,29.5,29.0,30.10,North,0,4.2,-999.0,98,-99.99,,,0.00,Acu-Link.com,2013-01-18 08:17:00,
2013-01-18 03:32:00,29.3,28.8,30.10,West,270,2.2,-999.0,98,-99.99,,,0.00,Acu-Link.com,2013-01-18 08:32:00,
2013-01-18 03:47:00,29.1,28.6,30.10,NNE,22,1.7,-999.0,98,-99.99,,,0.00,Acu-Link.com,2013-01-18 08:47:00,
2013-01-18 04:02:00,28.8,28.3,30.11,ESE,112,2.7,-999.0,98,-99.99,,,0.00,Acu-Link.com,2013-01-18 09:02:00,
2013-01-18 04:17:00,28.9,28.4,30.10,SE,135,2.7,-999.0,98,-99.99,,,0.00,Acu-Link.com,2013-01-18 09:17:00,
2013-01-18 04:33:00,28.6,28.1,30.11,SSE,157,4.7,-999.0,98,-99.99,,,0.00,Acu-Link.com,2013-01-18 09:33:00,
2013-01-18 04:48:00,28.4,27.9,30.10,SE,135,2.2,-999.0,98,-99.99,,,0.00,Acu-Link.com,2013-01-18 09:48:00,
2013-01-18 05:03:00,28.6,28.1,30.10,NE,45,3.2,-999.0,98,-99.99,,,0.00,Acu-Link.com,2013-01-18 10:03:00,
2013-01-18 05:18:00,28.4,27.9,30.10,ESE,112,3.7,-999.0,98,-99.99,,,0.00,Acu-Link.com,2013-01-18 10:18:00,
2013-01-18 05:34:00,28.2,27.7,30.10,ENE,67,2.2,-999.0,98,-99.99,,,0.00,Acu-Link.com,2013-01-18 10:34:00,
2013-01-18 05:49:00,28.4,27.9,30.11,South,180,1.7,-999.0,98,-99.99,,,0.00,Acu-Link.com,2013-01-18 10:49:00,
2013-01-18 06:04:00,28.2,27.7,30.12,WNW,292,3.7,-999.0,98,-99.99,,,0.00,Acu-Link.com,2013-01-18 11:04:00,
2013-01-18 06:19:00,28.2,27.7,30.11,ESE,112,2.7,-999.0,98,-99.99,,,0.00,Acu-Link.com,2013-01-18 11:19:00,
2013-01-18 06:35:00,28.0,27.5,30.11,East,90,2.7,-999.0,98,-99.99,,,0.00,Acu-Link.com,2013-01-18 11:35:00,
2013-01-18 06:50:00,28.2,27.7,30.12,SSE,157,2.2,-999.0,98,-99.99,,,0.00,Acu-Link.com,2013-01-18 11:50:00,
2013-01-18 07:05:00,28.0,27.5,30.13,South,180,0.0,-999.0,98,-99.99,,,0.00,Acu-Link.com,2013-01-18 12:05:00,
2013-01-18 07:20:00,27.7,27.2,30.14,WSW,247,3.7,-999.0,98,-99.99,,,0.00,Acu-Link.com,2013-01-18 12:20:00,
2013-01-18 07:35:00,27.9,27.4,30.15,SE,135,3.7,-999.0,98,-99.99,,,0.00,Acu-Link.com,2013-01-18 12:35:00,
2013-01-18 07:51:00,27.9,27.4,30.17,SE,135,3.7,-999.0,98,-99.99,,,0.00,Acu-Link.com,2013-01-18 12:51:00,
2013-01-18 08:06:00,28.4,27.9,30.18,NE,45,1.7,-999.0,98,-99.99,,,0.00,Acu-Link.com,2013-01-18 13:06:00,
2013-01-18 08:21:00,28.6,28.1,30.19,East,90,2.7,-999.0,98,-99.99,,,0.00,Acu-Link.com,2013-01-18 13:21:00,
2013-01-18 08:36:00,28.9,28.4,30.20,East,90,2.2,-999.0,98,-99.99,,,0.00,Acu-Link.com,2013-01-18 13:36:00,
2013-01-18 08:52:00,29.1,28.6,30.20,NE,45,1.1,-999.0,98,-99.99,,,0.00,Acu-Link.com,2013-01-18 13:52:00,
2013-01-18 09:07:00,29.7,29.2,30.21,West,270,2.2,-999.0,98,-99.99,,,0.00,Acu-Link.com,2013-01-18 14:07:00,
2013-01-18 09:22:00,31.6,31.1,30.22,East,90,1.7,-999.0,98,-99.99,,,0.00,Acu-Link.com,2013-01-18 14:22:00,
2013-01-18 09:37:00,32.5,32.0,30.24,ESE,112,2.7,-999.0,98,-99.99,,,0.00,Acu-Link.com,2013-01-18 14:37:00,
2013-01-18 09:52:00,33.3,32.8,30.25,North,0,2.7,-999.0,98,-99.99,,,0.00,Acu-Link.com,2013-01-18 14:52:00,
2013-01-18 10:08:00,34.3,33.8,30.25,ESE,112,3.2,-999.0,98,-99.99,,,0.00,Acu-Link.com,2013-01-18 15:08:00,
2013-01-18 10:23:00,35.6,35.1,30.25,North,0,4.7,-999.0,98,-99.99,,,0.00,Acu-Link.com,2013-01-18 15:23:00,
2013-01-18 10:38:00,36.3,35.8,30.25,WNW,292,2.7,-999.0,98,-99.99,,,0.00,Acu-Link.com,2013-01-18 15:38:00,
2013-01-18 10:53:00,36.9,34.5,30.26,WNW,292,4.7,-999.0,91,-99.99,,,0.00,Acu-Link.com,2013-01-18 15:53:00,
2013-01-18 11:08:00,38.8,37.0,30.27,East,90,2.2,-999.0,93,-99.99,,,0.00,Acu-Link.com,2013-01-18 16:08:00,
2013-01-18 11:24:00,39.2,38.4,30.26,SE,135,1.7,-999.0,97,-99.99,,,0.00,Acu-Link.com,2013-01-18 16:24:00,
2013-01-18 11:39:00,41.4,39.5,30.25,SSE,157,3.7,-999.0,93,-99.99,,,0.00,Acu-Link.com,2013-01-18 16:39:00,
2013-01-18 11:54:00,41.2,39.1,30.25,SE,135,4.7,-999.0,92,-99.99,,,0.00,Acu-Link.com,2013-01-18 16:54:00,
2013-01-18 12:09:00,41.7,38.7,30.24,SE,135,2.2,-999.0,89,-99.99,,,0.00,Acu-Link.com,2013-01-18 17:09:00,
2013-01-18 12:24:00,42.4,38.8,30.24,ENE,67,3.2,-999.0,87,-99.99,,,0.00,Acu-Link.com,2013-01-18 17:24:00,
2013-01-18 12:40:00,43.2,39.3,30.23,SSE,157,3.2,-999.0,86,-99.99,,,0.00,Acu-Link.com,2013-01-18 17:40:00,
2013-01-18 12:55:00,43.9,40.0,30.23,ESE,112,3.7,-999.0,86,-99.99,,,0.00,Acu-Link.com,2013-01-18 17:55:00,
2013-01-18 13:10:00,44.4,38.3,30.23,West,270,1.7,-999.0,79,-99.99,,,0.00,Acu-Link.com,2013-01-18 18:10:00,
2013-01-18 13:25:00,45.5,40.6,30.23,NE,45,2.7,-999.0,83,-99.99,,,0.00,Acu-Link.com,2013-01-18 18:25:00,
2013-01-18 13:41:00,44.6,36.5,30.22,SE,135,1.7,-999.0,73,-99.99,,,0.00,Acu-Link.com,2013-01-18 18:41:00,
2013-01-18 13:56:00,44.8,37.4,30.22,South,180,3.2,-999.0,75,-99.99,,,0.00,Acu-Link.com,2013-01-18 18:56:00,
2013-01-18 14:11:00,45.5,37.0,30.22,SE,135,3.2,-999.0,72,-99.99,,,0.00,Acu-Link.com,2013-01-18 19:11:00,
2013-01-18 14:26:00,46.6,41.1,30.22,West,270,0.0,-999.0,81,-99.99,,,0.00,Acu-Link.com,2013-01-18 19:26:00,
2013-01-18 14:41:00,46.6,39.8,30.21,NE,45,0.0,-999.0,77,-99.99,,,0.00,Acu-Link.com,2013-01-18 19:41:00,
2013-01-18 14:57:00,47.1,39.2,30.21,SE,135,2.2,-999.0,74,-99.99,,,0.00,Acu-Link.com,2013-01-18 19:57:00,
2013-01-18 15:12:00,47.3,39.1,30.21,SSE,157,1.7,-999.0,73,-99.99,,,0.00,Acu-Link.com,2013-01-18 20:12:00,
2013-01-18 15:27:00,47.1,36.7,30.21,NE,45,1.7,-999.0,67,-99.99,,,0.00,Acu-Link.com,2013-01-18 20:27:00,
2013-01-18 15:42:00,46.8,34.5,30.21,ESE,112,1.7,-999.0,62,-99.99,,,0.00,Acu-Link.com,2013-01-18 20:42:00,
2013-01-18 15:57:00,47.7,36.1,30.21,ENE,67,1.1,-999.0,64,-99.99,,,0.00,Acu-Link.com,2013-01-18 20:57:00,
2013-01-18 16:13:00,46.2,34.7,30.22,NNW,337,1.7,-999.0,64,-99.99,,,0.00,Acu-Link.com,2013-01-18 21:13:00,
2013-01-18 16:28:00,45.5,37.7,30.22,East,90,0.0,-999.0,74,-99.99,,,0.00,Acu-Link.com,2013-01-18 21:28:00,
2013-01-18 16:43:00,43.9,37.5,30.22,ESE,112,1.1,-999.0,78,-99.99,,,0.00,Acu-Link.com,2013-01-18 21:43:00,
2013-01-18 16:58:00,43.0,37.3,30.23,SSE,157,0.0,-999.0,80,-99.99,,,0.00,Acu-Link.com,2013-01-18 21:58:00,
2013-01-18 17:13:00,40.8,39.2,30.22,ENE,67,0.0,-999.0,94,-99.99,,,0.00,Acu-Link.com,2013-01-18 22:13:00,
2013-01-18 17:29:00,38.7,37.4,30.23,West,270,0.0,-999.0,95,-99.99,,,0.00,Acu-Link.com,2013-01-18 22:29:00,
2013-01-18 17:44:00,36.9,36.4,30.23,WSW,247,0.0,-999.0,98,-99.99,,,0.00,Acu-Link.com,2013-01-18 22:44:00,
2013-01-18 17:59:00,35.2,34.7,30.24,WNW,292,0.0,-999.0,98,-99.99,,,0.00,Acu-Link.com,2013-01-18 22:59:00,
2013-01-18 18:14:00,33.8,33.3,30.24,West,270,0.0,-999.0,98,-99.99,,,0.00,Acu-Link.com,2013-01-18 23:14:00,
2013-01-18 18:29:00,32.9,32.4,30.24,SE,135,0.0,-999.0,98,-99.99,,,0.00,Acu-Link.com,2013-01-18 23:29:00,
2013-01-18 18:45:00,32.4,31.9,30.25,NNE,22,0.0,-999.0,98,-99.99,,,0.00,Acu-Link.com,2013-01-18 23:45:00,
2013-01-18 19:00:00,31.8,31.3,30.25,WNW,292,0.0,-999.0,98,-99.99,,,0.00,Acu-Link.com,2013-01-19 00:00:00,
2013-01-18 19:15:00,31.3,30.8,30.25,WNW,292,0.0,-999.0,98,-99.99,,,0.00,Acu-Link.com,2013-01-19 00:15:00,
2013-01-18 19:30:00,30.6,30.1,30.25,SE,135,0.0,-999.0,98,-99.99,,,0.00,Acu-Link.com,2013-01-19 00:30:00,
2013-01-18 19:46:00,30.4,29.9,30.26,West,270,0.0,-999.0,98,-99.99,,,0.00,Acu-Link.com,2013-01-19 00:46:00,
2013-01-18 20:01:00,29.5,29.0,30.25,SE,135,0.0,-999.0,98,-99.99,,,0.00,Acu-Link.com,2013-01-19 01:01:00,
2013-01-18 20:16:00,29.1,28.6,30.26,NNE,22,0.0,-999.0,98,-99.99,,,0.00,Acu-Link.com,2013-01-19 01:16:00,
2013-01-18 20:31:00,29.1,28.6,30.25,NE,45,0.0,-999.0,98,-99.99,,,0.00,Acu-Link.com,2013-01-19 01:31:00,
2013-01-18 20:46:00,28.6,28.1,30.26,WNW,292,0.0,-999.0,98,-99.99,,,0.00,Acu-Link.com,2013-01-19 01:46:00,
2013-01-18 21:02:00,28.4,27.9,30.25,NW,315,0.0,-999.0,98,-99.99,,,0.00,Acu-Link.com,2013-01-19 02:02:00,
2013-01-18 21:17:00,27.9,27.4,30.25,ESE,112,0.0,-999.0,98,-99.99,,,0.00,Acu-Link.com,2013-01-19 02:17:00,
2013-01-18 21:47:00,28.0,27.5,30.25,NE,45,0.0,-999.0,98,-99.99,,,0.00,Acu-Link.com,2013-01-19 02:47:00,
2013-01-18 22:02:00,27.3,26.8,30.25,NE,45,0.0,-999.0,98,-99.99,,,0.00,Acu-Link.com,2013-01-19 03:02:00,
2013-01-18 22:18:00,27.5,27.0,30.26,NNE,22,0.0,-999.0,98,-99.99,,,0.00,Acu-Link.com,2013-01-19 03:18:00,
2013-01-18 22:33:00,27.7,27.2,30.25,NNE,22,0.0,-999.0,98,-99.99,,,0.00,Acu-Link.com,2013-01-19 03:33:00,
2013-01-18 22:48:00,27.5,27.0,30.26,NNE,22,0.0,-999.0,98,-99.99,,,0.00,Acu-Link.com,2013-01-19 03:48:00,
2013-01-18 23:03:00,27.1,26.6,30.25,NE,45,0.0,-999.0,98,-99.99,,,0.00,Acu-Link.com,2013-01-19 04:03:00,
2013-01-18 23:18:00,27.5,27.0,30.25,NNE,22,0.0,-999.0,98,-99.99,,,0.00,Acu-Link.com,2013-01-19 04:18:00,
2013-01-18 23:34:00,27.1,26.6,30.24,NNE,22,0.0,-999.0,98,-99.99,,,0.00,Acu-Link.com,2013-01-19 04:34:00,
2013-01-18 23:49:00,27.0,26.5,30.24,NE,45,0.0,-999.0,98,-99.99,,,0.00,Acu-Link.com,2013-01-19 04:49:00,